Time,TemperatureF,DewpointF,PressureIn,WindDirection,WindDirectionDegrees,WindSpeedMPH,WindSpeedGustMPH,Humidity,HourlyPrecipIn,Conditions,Clouds,dailyrainin,SoftwareType,DateUTC
2013-01-13 00:04:00,28.4,26.4,29.86,NNW,342,0.0,0.0,92,0.00,,---,0.00,VWS V14.00,2013-01-13 06:04:00,
2013-01-13 00:09:00,28.4,26.4,29.86,NNW,342,0.0,0.0,92,0.00,,---,0.00,VWS V14.00,2013-01-13 06:09:00,
2013-01-13 00:14:00,28.4,26.4,29.86,NNW,342,0.0,0.0,92,0.00,,---,0.00,VWS V14.00,2013-01-13 06:14:00,
2013-01-13 00:20:00,28.4,26.4,29.86,NNW,342,0.0,0.0,92,0.00,,---,0.00,VWS V14.00,2013-01-13 06:20:00,
2013-01-13 00:25:00,28.4,26.6,29.86,NNW,342,0.0,0.0,93,0.00,,---,0.00,VWS V14.00,2013-01-13 06:25:00,
2013-01-13 00:30:00,28.5,26.7,29.86,NNW,342,0.0,0.0,93,0.00,,---,0.00,VWS V14.00,2013-01-13 06:30:00,
2013-01-13 00:35:00,28.5,26.7,29.87,NNW,342,0.0,0.0,93,0.00,,---,0.00,VWS V14.00,2013-01-13 06:35:00,
2013-01-13 00:40:00,28.5,26.7,29.87,NNW,342,0.0,0.0,93,0.00,,---,0.00,VWS V14.00,2013-01-13 06:40:00,
2013-01-13 00:45:00,28.5,26.7,29.87,NNW,342,0.0,0.0,93,0.00,,---,0.00,VWS V14.00,2013-01-13 06:45:00,
2013-01-13 00:50:00,28.4,26.6,29.87,NNW,342,0.0,0.0,93,0.00,,---,0.00,VWS V14.00,2013-01-13 06:50:00,
2013-01-13 00:55:00,28.4,26.6,29.87,NNW,342,0.0,0.0,93,0.00,,---,0.00,VWS V14.00,2013-01-13 06:55:00,
2013-01-13 01:00:00,28.2,26.4,29.87,NNW,342,0.0,0.0,93,0.00,,---,0.00,VWS V14.00,2013-01-13 07:00:00,
2013-01-13 01:05:00,28.1,26.3,29.88,NNW,342,0.0,0.0,93,0.00,,---,0.00,VWS V14.00,2013-01-13 07:05:00,
2013-01-13 01:11:00,27.9,26.1,29.88,NNW,342,0.0,0.0,93,0.00,,---,0.00,VWS V14.00,2013-01-13 07:11:00,
2013-01-13 01:16:00,27.8,26.0,29.88,NNW,342,0.0,0.0,93,0.00,,---,0.00,VWS V14.00,2013-01-13 07:16:00,
2013-01-13 01:21:00,27.8,26.0,29.88,NNW,342,0.0,0.0,93,0.00,,---,0.00,VWS V14.00,2013-01-13 07:21:00,
2013-01-13 01:26:00,27.6,25.8,29.88,NNW,342,0.0,0.0,93,0.00,,---,0.00,VWS V14.00,2013-01-13 07:26:00,
2013-01-13 01:31:00,27.6,25.8,29.88,NNW,342,0.0,0.0,93,0.00,,---,0.00,VWS V14.00,2013-01-13 07:31:00,
2013-01-13 01:36:00,27.6,25.8,29.87,NNW,342,0.0,0.0,93,0.00,,---,0.00,VWS V14.00,2013-01-13 07:36:00,
2013-01-13 01:41:00,27.6,25.8,29.87,NNW,342,0.0,0.0,93,0.00,,---,0.00,VWS V14.00,2013-01-13 07:41:00,
2013-01-13 01:46:00,27.8,26.0,29.87,NNW,342,0.0,0.0,93,0.00,,---,0.00,VWS V14.00,2013-01-13 07:46:00,
2013-01-13 01:51:00,27.8,26.0,29.86,NNW,342,0.0,0.0,93,0.00,,---,0.00,VWS V14.00,2013-01-13 07:51:00,
2013-01-13 01:57:00,27.8,26.0,29.86,NNW,342,0.0,0.0,93,0.00,,---,0.00,VWS V14.00,2013-01-13 07:57:00,
2013-01-13 02:02:00,27.8,26.0,29.86,NNW,342,0.0,0.0,93,0.00,,---,0.00,VWS V14.00,2013-01-13 08:02:00,
2013-01-13 02:07:00,27.8,26.0,29.89,NNW,342,0.0,0.0,93,0.00,,---,0.00,VWS V14.00,2013-01-13 08:07:00,
2013-01-13 02:12:00,27.8,26.0,29.89,NNW,342,0.0,0.0,93,0.00,,---,0.00,VWS V14.00,2013-01-13 08:12:00,
2013-01-13 02:17:00,27.8,26.0,29.92,NNW,342,0.0,0.0,93,0.00,,---,0.00,VWS V14.00,2013-01-13 08:17:00,
2013-01-13 02:22:00,27.9,26.1,29.92,NNW,342,0.0,0.0,93,0.00,,---,0.00,VWS V14.00,2013-01-13 08:22:00,
2013-01-13 02:27:00,27.8,26.0,29.92,NNW,342,0.0,0.0,93,0.00,,---,0.00,VWS V14.00,2013-01-13 08:27:00,
2013-01-13 02:32:00,27.8,26.0,29.90,NNW,342,0.0,0.0,93,0.00,,---,0.00,VWS V14.00,2013-01-13 08:32:00,
2013-01-13 02:37:00,27.8,26.0,29.90,NNW,342,0.0,0.0,93,0.00,,---,0.00,VWS V14.00,2013-01-13 08:37:00,
2013-01-13 02:43:00,27.8,26.0,29.90,NNW,342,0.0,0.0,93,0.00,,---,0.00,VWS V14.00,2013-01-13 08:43:00,
2013-01-13 02:48:00,27.8,26.0,29.88,NNW,342,0.0,0.0,93,0.00,,---,0.00,VWS V14.00,2013-01-13 08:48:00,
2013-01-13 02:53:00,27.8,26.0,29.88,NNW,342,0.0,0.0,93,0.00,,---,0.00,VWS V14.00,2013-01-13 08:53:00,
2013-01-13 02:58:00,27.6,25.8,29.88,NNW,342,0.0,0.0,93,0.00,,---,0.00,VWS V14.00,2013-01-13 08:58:00,
2013-01-13 03:03:00,27.5,25.8,29.88,NNW,342,0.0,0.0,93,0.00,,---,0.00,VWS V14.00,2013-01-13 09:03:00,
2013-01-13 03:08:00,27.5,25.8,29.88,NNW,342,0.0,0.0,93,0.00,,---,0.00,VWS V14.00,2013-01-13 09:08:00,
2013-01-13 03:13:00,27.5,25.8,29.88,NNW,342,0.0,0.0,93,0.00,,---,0.00,VWS V14.00,2013-01-13 09:13:00,
2013-01-13 03:18:00,27.3,25.5,29.90,NNW,342,0.0,0.0,93,0.00,,---,0.00,VWS V14.00,2013-01-13 09:18:00,
2013-01-13 03:23:00,27.3,25.5,29.90,NNW,342,0.0,0.0,93,0.00,,---,0.00,VWS V14.00,2013-01-13 09:23:00,
2013-01-13 03:29:00,27.3,25.5,29.90,NNW,342,0.0,0.0,93,0.00,,---,0.00,VWS V14.00,2013-01-13 09:29:00,
2013-01-13 03:34:00,27.2,25.5,29.90,NNW,342,0.0,0.0,93,0.00,,---,0.00,VWS V14.00,2013-01-13 09:34:00,
2013-01-13 03:39:00,27.0,25.2,29.90,NNW,342,0.0,0.0,93,0.00,,---,0.00,VWS V14.00,2013-01-13 09:39:00,
2013-01-13 03:44:00,27.0,25.2,29.90,NNW,342,0.0,0.0,93,0.00,,---,0.00,VWS V14.00,2013-01-13 09:44:00,
2013-01-13 03:49:00,26.9,25.1,29.92,NNW,342,0.0,0.0,93,0.00,,---,0.00,VWS V14.00,2013-01-13 09:49:00,
2013-01-13 03:54:00,26.7,24.7,29.92,NNW,342,0.0,0.0,92,0.00,,---,0.00,VWS V14.00,2013-01-13 09:54:00,
2013-01-13 03:59:00,26.7,25.0,29.92,NNW,342,0.0,0.0,93,0.00,,---,0.00,VWS V14.00,2013-01-13 09:59:00,
2013-01-13 04:04:00,26.7,24.7,29.93,NNW,342,0.0,0.0,92,0.00,,---,0.00,VWS V14.00,2013-01-13 10:04:00,
2013-01-13 04:09:00,26.6,24.6,29.93,NNW,342,0.0,0.0,92,0.00,,---,0.00,VWS V14.00,2013-01-13 10:09:00,
2013-01-13 04:15:00,26.4,24.4,29.93,NNW,342,0.0,0.0,92,0.00,,---,0.00,VWS V14.00,2013-01-13 10:15:00,
2013-01-13 04:20:00,26.4,24.4,29.96,NNW,342,0.0,0.0,92,0.00,,---,0.00,VWS V14.00,2013-01-13 10:20:00,
2013-01-13 04:25:00,26.4,24.4,29.96,NNW,342,0.0,0.0,92,0.00,,---,0.00,VWS V14.00,2013-01-13 10:25:00,
2013-01-13 04:30:00,26.1,24.1,29.96,NNW,342,0.0,0.0,92,0.00,,---,0.00,VWS V14.00,2013-01-13 10:30:00,
2013-01-13 04:35:00,26.0,24.0,29.96,NNW,342,0.0,0.0,92,0.00,,---,0.00,VWS V14.00,2013-01-13 10:35:00,
2013-01-13 04:40:00,25.8,23.8,29.96,NNW,342,0.0,0.0,92,0.00,,---,0.00,VWS V14.00,2013-01-13 10:40:00,
2013-01-13 04:45:00,25.6,23.3,29.96,NNW,342,0.0,0.0,91,0.00,,---,0.00,VWS V14.00,2013-01-13 10:45:00,
2013-01-13 04:50:00,25.6,23.3,29.97,NNW,342,0.0,0.0,91,0.00,,---,0.00,VWS V14.00,2013-01-13 10:50:00,
2013-01-13 04:56:00,25.4,23.1,29.97,NNW,342,0.0,0.0,91,0.00,,---,0.00,VWS V14.00,2013-01-13 10:56:00,
2013-01-13 05:01:00,25.4,23.1,29.97,NNW,342,0.0,0.0,91,0.00,,---,0.00,VWS V14.00,2013-01-13 11:01:00,
2013-01-13 05:06:00,25.4,23.1,29.95,NNW,342,0.0,0.0,91,0.00,,---,0.00,VWS V14.00,2013-01-13 11:06:00,
2013-01-13 05:11:00,25.3,23.0,29.95,NNW,342,0.0,0.0,91,0.00,,---,0.00,VWS V14.00,2013-01-13 11:11:00,
2013-01-13 05:16:00,25.1,22.6,29.95,NNW,342,0.0,0.0,90,0.00,,---,0.00,VWS V14.00,2013-01-13 11:16:00,
2013-01-13 05:21:00,25.0,22.5,29.94,NNW,342,0.0,0.0,90,0.00,,---,0.00,VWS V14.00,2013-01-13 11:21:00,
2013-01-13 05:26:00,25.0,22.5,29.94,NNW,342,0.0,0.0,90,0.00,,---,0.00,VWS V14.00,2013-01-13 11:26:00,
2013-01-13 05:31:00,24.7,22.2,29.94,NNW,342,0.0,0.0,90,0.00,,---,0.00,VWS V14.00,2013-01-13 11:31:00,
2013-01-13 05:36:00,24.5,22.0,29.97,NNW,342,0.0,0.0,90,0.00,,---,0.00,VWS V14.00,2013-01-13 11:36:00,
2013-01-13 05:42:00,24.4,21.9,29.97,NNW,342,0.0,0.0,90,0.00,,---,0.00,VWS V14.00,2013-01-13 11:42:00,
2013-01-13 05:47:00,24.2,21.7,29.97,NNW,342,0.0,0.0,90,0.00,,---,0.00,VWS V14.00,2013-01-13 11:47:00,
2013-01-13 05:52:00,24.1,21.6,29.97,NNW,342,0.0,0.0,90,0.00,,---,0.00,VWS V14.00,2013-01-13 11:52:00,
2013-01-13 05:57:00,23.9,21.4,29.97,NNW,342,0.0,0.0,90,0.00,,---,0.00,VWS V14.00,2013-01-13 11:57:00,
2013-01-13 06:02:00,23.9,21.4,29.97,NNW,342,0.0,0.0,90,0.00,,---,0.00,VWS V14.00,2013-01-13 12:02:00,
2013-01-13 06:07:00,23.9,21.4,29.97,NNW,342,0.0,0.0,90,0.00,,---,0.00,VWS V14.00,2013-01-13 12:07:00,
2013-01-13 06:12:00,23.8,21.0,29.97,NNW,342,0.0,0.0,89,0.00,,---,0.00,VWS V14.00,2013-01-13 12:12:00,
2013-01-13 06:17:00,23.8,21.0,29.97,NNW,342,0.0,0.0,89,0.00,,---,0.00,VWS V14.00,2013-01-13 12:17:00,
2013-01-13 06:22:00,23.8,21.0,29.97,NNW,342,0.0,0.0,89,0.00,,---,0.00,VWS V14.00,2013-01-13 12:22:00,
2013-01-13 06:28:00,23.6,20.8,29.97,NNW,342,0.0,0.0,89,0.00,,---,0.00,VWS V14.00,2013-01-13 12:28:00,
2013-01-13 06:33:00,23.6,20.8,29.98,NNW,342,0.0,0.0,89,0.00,,---,0.00,VWS V14.00,2013-01-13 12:33:00,
2013-01-13 06:38:00,23.6,20.8,29.98,NNW,342,0.0,0.0,89,0.00,,---,0.00,VWS V14.00,2013-01-13 12:38:00,
2013-01-13 06:43:00,23.5,20.7,29.98,NNW,342,0.0,0.0,89,0.00,,---,0.00,VWS V14.00,2013-01-13 12:43:00,
2013-01-13 06:48:00,23.5,20.7,29.99,NNW,342,0.0,0.0,89,0.00,,---,0.00,VWS V14.00,2013-01-13 12:48:00,
2013-01-13 06:53:00,23.3,20.3,29.99,NNW,342,0.0,0.0,88,0.00,,---,0.00,VWS V14.00,2013-01-13 12:53:00,
2013-01-13 06:58:00,23.3,20.3,29.99,NNW,342,0.0,0.0,88,0.00,,---,0.00,VWS V14.00,2013-01-13 12:58:00,
2013-01-13 07:03:00,23.3,20.3,30.01,NNW,342,0.0,0.0,88,0.00,,---,0.00,VWS V14.00,2013-01-13 13:03:00,
2013-01-13 07:08:00,23.3,20.3,30.01,NNW,342,0.0,0.0,88,0.00,,---,0.00,VWS V14.00,2013-01-13 13:08:00,
2013-01-13 07:13:00,23.2,19.9,30.01,NNW,342,0.0,0.0,87,0.00,,---,0.00,VWS V14.00,2013-01-13 13:13:00,
2013-01-13 07:18:00,23.0,19.7,29.98,NNW,342,0.0,0.0,87,0.00,,---,0.00,VWS V14.00,2013-01-13 13:18:00,
2013-01-13 07:24:00,23.0,19.7,29.98,NNW,342,0.0,0.0,87,0.00,,---,0.00,VWS V14.00,2013-01-13 13:24:00,
2013-01-13 07:29:00,23.0,20.0,29.98,NNW,342,0.0,0.0,88,0.00,,---,0.00,VWS V14.00,2013-01-13 13:29:00,
2013-01-13 07:34:00,23.2,20.2,30.01,NNW,342,0.0,0.0,88,0.00,,---,0.00,VWS V14.00,2013-01-13 13:34:00,
2013-01-13 07:39:00,23.2,20.2,30.01,NNW,342,0.0,0.0,88,0.00,,---,0.00,VWS V14.00,2013-01-13 13:39:00,
2013-01-13 07:44:00,23.2,19.9,30.01,NNW,342,0.0,0.0,87,0.00,,---,0.00,VWS V14.00,2013-01-13 13:44:00,
2013-01-13 07:49:00,23.2,20.2,30.02,NNW,342,0.0,0.0,88,0.00,,---,0.00,VWS V14.00,2013-01-13 13:49:00,
2013-01-13 07:54:00,23.2,19.9,30.02,NNW,342,0.0,0.0,87,0.00,,---,0.00,VWS V14.00,2013-01-13 13:54:00,
2013-01-13 07:59:00,23.2,20.2,30.02,NNW,342,0.0,0.0,88,0.00,,---,0.00,VWS V14.00,2013-01-13 13:59:00,
2013-01-13 08:04:00,23.2,20.2,30.00,NNW,342,0.0,0.0,88,0.00,,---,0.00,VWS V14.00,2013-01-13 14:04:00,
2013-01-13 08:09:00,23.2,19.9,30.00,NNW,342,0.0,0.0,87,0.00,,---,0.00,VWS V14.00,2013-01-13 14:09:00,
2013-01-13 08:14:00,23.0,19.7,30.00,NNW,342,0.0,0.0,87,0.00,,---,0.00,VWS V14.00,2013-01-13 14:14:00,
2013-01-13 08:19:00,22.9,19.6,30.02,NNW,342,0.0,0.0,87,0.00,,---,0.00,VWS V14.00,2013-01-13 14:19:00,
2013-01-13 08:24:00,23.0,19.7,30.02,NNW,342,0.0,0.0,87,0.00,,---,0.00,VWS V14.00,2013-01-13 14:24:00,
2013-01-13 08:29:00,23.2,19.6,30.02,NNW,342,0.0,0.0,86,0.00,,---,0.00,VWS V14.00,2013-01-13 14:29:00,
2013-01-13 08:34:00,23.2,19.6,30.06,NNW,342,0.0,0.0,86,0.00,,---,0.00,VWS V14.00,2013-01-13 14:34:00,
2013-01-13 08:39:00,23.0,19.2,30.06,NNW,342,0.0,0.0,85,0.00,,---,0.00,VWS V14.00,2013-01-13 14:39:00,
2013-01-13 08:45:00,22.9,19.1,30.06,NNW,342,0.0,0.0,85,0.00,,---,0.00,VWS V14.00,2013-01-13 14:45:00,
2013-01-13 08:50:00,22.9,19.1,30.04,NNW,342,0.0,0.0,85,0.00,,---,0.00,VWS V14.00,2013-01-13 14:50:00,
2013-01-13 08:55:00,22.7,18.9,30.04,NNW,342,0.0,0.0,85,0.00,,---,0.00,VWS V14.00,2013-01-13 14:55:00,
2013-01-13 09:00:00,22.9,19.1,30.04,NNW,342,0.0,0.0,85,0.00,,---,0.00,VWS V14.00,2013-01-13 15:00:00,
2013-01-13 09:05:00,23.0,19.2,30.04,NNW,342,0.0,0.0,85,0.00,,---,0.00,VWS V14.00,2013-01-13 15:05:00,
2013-01-13 09:10:00,22.9,19.1,30.04,NNW,342,0.0,0.0,85,0.00,,---,0.00,VWS V14.00,2013-01-13 15:10:00,
2013-01-13 09:15:00,23.0,19.2,30.04,NNW,342,0.0,0.0,85,0.00,,---,0.00,VWS V14.00,2013-01-13 15:15:00,
2013-01-13 09:20:00,23.0,19.2,30.04,NNW,342,0.0,0.0,85,0.00,,---,0.00,VWS V14.00,2013-01-13 15:20:00,
2013-01-13 09:25:00,22.9,19.1,30.04,NNW,342,0.0,0.0,85,0.00,,---,0.00,VWS V14.00,2013-01-13 15:25:00,
2013-01-13 09:30:00,22.9,19.1,30.04,NNW,342,0.0,0.0,85,0.00,,---,0.00,VWS V14.00,2013-01-13 15:30:00,
2013-01-13 09:35:00,22.5,18.7,30.02,NNW,342,0.0,0.0,85,0.00,,---,0.00,VWS V14.00,2013-01-13 15:35:00,
2013-01-13 09:40:00,22.5,18.7,30.02,NNW,342,11.0,11.0,85,0.00,,---,0.00,VWS V14.00,2013-01-13 15:40:00,
2013-01-13 09:45:00,22.4,18.6,30.02,NNW,342,5.0,12.0,85,0.00,,---,0.00,VWS V14.00,2013-01-13 15:45:00,
2013-01-13 09:50:00,22.5,18.7,30.03,NNW,342,4.0,5.0,85,0.00,,---,0.00,VWS V14.00,2013-01-13 15:50:00,
2013-01-13 09:56:00,22.5,18.7,30.03,NNW,342,13.0,15.0,85,0.00,,---,0.00,VWS V14.00,2013-01-13 15:56:00,
2013-01-13 10:01:00,22.4,18.6,30.03,NNW,342,6.0,14.0,85,0.00,,---,0.00,VWS V14.00,2013-01-13 16:01:00,
2013-01-13 10:06:00,22.2,18.4,30.04,NNW,342,3.0,12.0,85,0.00,,---,0.00,VWS V14.00,2013-01-13 16:06:00,
2013-01-13 10:11:00,22.1,18.3,30.04,NNW,342,4.0,10.0,85,0.00,,---,0.00,VWS V14.00,2013-01-13 16:11:00,
2013-01-13 10:16:00,21.9,18.1,30.04,NNW,342,9.0,13.0,85,0.00,,---,0.00,VWS V14.00,2013-01-13 16:16:00,
2013-01-13 10:21:00,21.8,17.7,30.03,NNW,342,4.0,9.0,84,0.00,,---,0.00,VWS V14.00,2013-01-13 16:21:00,
2013-01-13 10:26:00,21.6,17.8,30.03,NNW,342,11.0,12.0,85,0.00,,---,0.00,VWS V14.00,2013-01-13 16:26:00,
2013-01-13 10:31:00,21.4,17.3,30.03,NNW,342,10.0,11.0,84,0.00,,---,0.00,VWS V14.00,2013-01-13 16:31:00,
2013-01-13 10:36:00,21.4,17.3,30.01,NNW,342,5.0,5.0,84,0.00,,---,0.00,VWS V14.00,2013-01-13 16:36:00,
2013-01-13 10:42:00,21.3,17.2,30.01,NNW,342,2.0,8.0,84,0.00,,---,0.00,VWS V14.00,2013-01-13 16:42:00,
2013-01-13 10:47:00,21.3,17.2,30.01,NNW,342,7.0,11.0,84,0.00,,---,0.00,VWS V14.00,2013-01-13 16:47:00,
2013-01-13 10:52:00,21.3,17.0,30.01,NNW,342,5.0,10.0,83,0.00,,---,0.00,VWS V14.00,2013-01-13 16:52:00,
2013-01-13 10:57:00,21.3,17.2,30.01,NNW,342,12.0,12.0,84,0.00,,---,0.00,VWS V14.00,2013-01-13 16:57:00,
2013-01-13 11:02:00,21.1,17.0,30.00,NNW,342,3.0,5.0,84,0.00,,---,0.00,VWS V14.00,2013-01-13 17:02:00,
2013-01-13 11:07:00,21.1,17.0,30.00,NNW,342,6.0,8.0,84,0.00,,---,0.00,VWS V14.00,2013-01-13 17:07:00,
2013-01-13 11:12:00,21.1,17.3,30.00,NNW,342,8.0,8.0,85,0.00,,---,0.00,VWS V14.00,2013-01-13 17:12:00,
2013-01-13 11:18:00,21.0,16.9,30.05,NNW,342,12.0,13.0,84,0.00,,---,0.00,VWS V14.00,2013-01-13 17:18:00,
2013-01-13 11:23:00,21.0,16.9,30.05,NNW,342,9.0,9.0,84,0.00,,---,0.00,VWS V14.00,2013-01-13 17:23:00,
2013-01-13 11:28:00,20.8,16.7,30.05,NNW,342,6.0,12.0,84,0.00,,---,0.00,VWS V14.00,2013-01-13 17:28:00,
2013-01-13 11:33:00,20.8,16.5,30.05,NNW,342,1.0,4.0,83,0.00,,---,0.00,VWS V14.00,2013-01-13 17:33:00,
2013-01-13 11:38:00,21.0,16.7,30.05,NNW,342,5.0,6.0,83,0.00,,---,0.00,VWS V14.00,2013-01-13 17:38:00,
2013-01-13 11:43:00,20.8,16.5,30.05,NNW,342,3.0,6.0,83,0.00,,---,0.00,VWS V14.00,2013-01-13 17:43:00,
2013-01-13 11:48:00,20.8,16.5,30.08,NNW,342,6.0,9.0,83,0.00,,---,0.00,VWS V14.00,2013-01-13 17:48:00,
2013-01-13 11:53:00,21.0,16.7,30.08,NNW,342,6.0,7.0,83,0.00,,---,0.00,VWS V14.00,2013-01-13 17:53:00,
2013-01-13 11:58:00,21.0,16.7,30.08,NNW,342,3.0,7.0,83,0.00,,---,0.00,VWS V14.00,2013-01-13 17:58:00,
2013-01-13 12:03:00,21.0,16.7,30.07,NNW,342,11.0,13.0,83,0.00,,---,0.00,VWS V14.00,2013-01-13 18:03:00,
2013-01-13 12:08:00,20.8,16.5,30.07,NNW,342,6.0,11.0,83,0.00,,---,0.00,VWS V14.00,2013-01-13 18:08:00,
2013-01-13 12:14:00,20.8,16.5,30.07,NNW,342,13.0,15.0,83,0.00,,---,0.00,VWS V14.00,2013-01-13 18:14:00,
2013-01-13 12:19:00,20.8,16.5,30.06,NNW,342,10.0,15.0,83,0.00,,---,0.00,VWS V14.00,2013-01-13 18:19:00,
2013-01-13 12:24:00,20.6,16.3,30.06,NNW,342,5.0,12.0,83,0.00,,---,0.00,VWS V14.00,2013-01-13 18:24:00,
2013-01-13 12:29:00,20.5,15.9,30.06,NNW,342,11.0,15.0,82,0.00,,---,0.00,VWS V14.00,2013-01-13 18:29:00,
2013-01-13 12:34:00,20.3,15.4,30.03,NNW,342,5.0,5.0,81,0.00,,---,0.00,VWS V14.00,2013-01-13 18:34:00,
2013-01-13 12:39:00,20.5,15.9,30.03,NNW,342,8.0,9.0,82,0.00,,---,0.00,VWS V14.00,2013-01-13 18:39:00,
2013-01-13 12:44:00,20.6,16.0,30.03,NNW,342,13.0,15.0,82,0.00,,---,0.00,VWS V14.00,2013-01-13 18:44:00,
2013-01-13 12:49:00,20.6,16.3,30.03,NNW,342,6.0,9.0,83,0.00,,---,0.00,VWS V14.00,2013-01-13 18:49:00,
2013-01-13 12:54:00,20.5,15.9,30.03,NNW,342,12.0,15.0,82,0.00,,---,0.00,VWS V14.00,2013-01-13 18:54:00,
2013-01-13 12:59:00,20.2,15.6,30.03,NNW,342,6.0,13.0,82,0.00,,---,0.00,VWS V14.00,2013-01-13 18:59:00,
2013-01-13 13:04:00,20.3,16.0,30.00,NNW,342,11.0,14.0,83,0.00,,---,0.00,VWS V14.00,2013-01-13 19:04:00,
2013-01-13 13:09:00,20.2,15.6,30.00,NNW,342,6.0,15.0,82,0.00,,---,0.00,VWS V14.00,2013-01-13 19:09:00,
2013-01-13 13:15:00,20.3,16.0,30.00,NNW,342,7.0,13.0,83,0.00,,---,0.00,VWS V14.00,2013-01-13 19:15:00,
2013-01-13 13:20:00,20.2,15.6,30.01,NNW,342,10.0,19.0,82,0.00,,---,0.00,VWS V14.00,2013-01-13 19:20:00,
2013-01-13 13:25:00,20.2,15.6,30.01,NNW,342,10.0,13.0,82,0.00,,---,0.00,VWS V14.00,2013-01-13 19:25:00,
2013-01-13 13:30:00,20.3,16.0,30.01,NNW,342,9.0,14.0,83,0.00,,---,0.00,VWS V14.00,2013-01-13 19:30:00,
2013-01-13 13:35:00,20.2,15.9,30.03,NNW,342,11.0,11.0,83,0.00,,---,0.00,VWS V14.00,2013-01-13 19:35:00,
2013-01-13 13:40:00,20.0,15.4,30.03,NNW,342,12.0,18.0,82,0.00,,---,0.00,VWS V14.00,2013-01-13 19:40:00,
2013-01-13 13:45:00,19.9,15.0,30.03,NNW,342,6.0,10.0,81,0.00,,---,0.00,VWS V14.00,2013-01-13 19:45:00,
2013-01-13 13:50:00,20.0,15.4,30.02,NNW,342,9.0,12.0,82,0.00,,---,0.00,VWS V14.00,2013-01-13 19:50:00,
2013-01-13 13:55:00,19.9,15.3,30.02,NNW,342,5.0,14.0,82,0.00,,---,0.00,VWS V14.00,2013-01-13 19:55:00,
2013-01-13 14:00:00,19.9,15.3,30.02,NNW,342,6.0,11.0,82,0.00,,---,0.00,VWS V14.00,2013-01-13 20:00:00,
2013-01-13 14:05:00,20.0,15.4,30.04,NNW,342,6.0,9.0,82,0.00,,---,0.00,VWS V14.00,2013-01-13 20:05:00,
2013-01-13 14:11:00,19.9,15.0,30.04,NNW,342,10.0,14.0,81,0.00,,---,0.00,VWS V14.00,2013-01-13 20:11:00,
2013-01-13 14:16:00,19.9,15.9,30.04,NNW,342,7.0,10.0,84,0.00,,---,0.00,VWS V14.00,2013-01-13 20:16:00,
2013-01-13 14:21:00,19.7,14.5,30.05,NNW,342,9.0,11.0,80,0.00,,---,0.00,VWS V14.00,2013-01-13 20:21:00,
2013-01-13 14:26:00,19.9,15.0,30.05,NNW,342,10.0,14.0,81,0.00,,---,0.00,VWS V14.00,2013-01-13 20:26:00,
2013-01-13 14:31:00,19.7,14.5,30.05,NNW,342,6.0,12.0,80,0.00,,---,0.00,VWS V14.00,2013-01-13 20:31:00,
2013-01-13 14:36:00,19.9,15.0,30.06,NNW,342,9.0,11.0,81,0.00,,---,0.00,VWS V14.00,2013-01-13 20:36:00,
2013-01-13 14:41:00,19.9,14.7,30.06,NNW,342,10.0,11.0,80,0.00,,---,0.00,VWS V14.00,2013-01-13 20:41:00,
2013-01-13 14:46:00,19.9,14.7,30.06,NNW,342,3.0,9.0,80,0.00,,---,0.00,VWS V14.00,2013-01-13 20:46:00,
2013-01-13 14:51:00,19.9,15.0,30.06,NNW,342,7.0,7.0,81,0.00,,---,0.00,VWS V14.00,2013-01-13 20:51:00,
2013-01-13 14:56:00,20.0,14.8,30.06,NNW,342,4.0,11.0,80,0.00,,---,0.00,VWS V14.00,2013-01-13 20:56:00,
2013-01-13 15:01:00,20.0,14.8,30.06,NNW,342,10.0,11.0,80,0.00,,---,0.00,VWS V14.00,2013-01-13 21:01:00,
2013-01-13 15:06:00,20.0,14.8,30.07,NNW,342,5.0,5.0,80,0.00,,---,0.00,VWS V14.00,2013-01-13 21:06:00,
2013-01-13 15:12:00,20.0,15.1,30.07,NNW,342,9.0,13.0,81,0.00,,---,0.00,VWS V14.00,2013-01-13 21:12:00,
2013-01-13 15:17:00,20.0,14.8,30.07,NNW,342,8.0,11.0,80,0.00,,---,0.00,VWS V14.00,2013-01-13 21:17:00,
2013-01-13 15:22:00,20.0,14.8,30.08,NNW,342,11.0,11.0,80,0.00,,---,0.00,VWS V14.00,2013-01-13 21:22:00,
2013-01-13 15:27:00,20.0,14.8,30.08,NNW,342,6.0,10.0,80,0.00,,---,0.00,VWS V14.00,2013-01-13 21:27:00,
2013-01-13 15:32:00,20.0,14.8,30.08,NNW,342,10.0,12.0,80,0.00,,---,0.00,VWS V14.00,2013-01-13 21:32:00,
2013-01-13 15:37:00,20.0,14.6,30.10,NNW,342,11.0,11.0,79,0.00,,---,0.00,VWS V14.00,2013-01-13 21:37:00,
2013-01-13 15:42:00,20.2,15.0,30.10,NNW,342,11.0,15.0,80,0.00,,---,0.00,VWS V14.00,2013-01-13 21:42:00,
2013-01-13 15:47:00,20.0,14.8,30.11,NNW,342,9.0,14.0,80,0.00,,---,0.00,VWS V14.00,2013-01-13 21:47:00,
2013-01-13 15:52:00,20.0,15.1,30.11,NNW,342,9.0,12.0,81,0.00,,---,0.00,VWS V14.00,2013-01-13 21:52:00,
2013-01-13 15:57:00,19.9,14.7,30.11,NNW,342,7.0,13.0,80,0.00,,---,0.00,VWS V14.00,2013-01-13 21:57:00,
2013-01-13 16:03:00,20.0,14.8,30.13,NNW,342,11.0,12.0,80,0.00,,---,0.00,VWS V14.00,2013-01-13 22:03:00,
2013-01-13 16:08:00,20.0,14.8,30.13,NNW,342,7.0,10.0,80,0.00,,---,0.00,VWS V14.00,2013-01-13 22:08:00,
2013-01-13 16:13:00,20.0,14.8,30.13,NNW,342,10.0,10.0,80,0.00,,---,0.00,VWS V14.00,2013-01-13 22:13:00,
2013-01-13 16:18:00,20.0,14.8,30.14,NNW,342,11.0,14.0,80,0.00,,---,0.00,VWS V14.00,2013-01-13 22:18:00,
2013-01-13 16:23:00,20.0,14.8,30.14,NNW,342,9.0,11.0,80,0.00,,---,0.00,VWS V14.00,2013-01-13 22:23:00,
2013-01-13 16:28:00,19.9,14.4,30.14,NNW,342,6.0,12.0,79,0.00,,---,0.00,VWS V14.00,2013-01-13 22:28:00,
2013-01-13 16:33:00,19.9,14.4,30.15,NNW,342,10.0,12.0,79,0.00,,---,0.00,VWS V14.00,2013-01-13 22:33:00,
2013-01-13 16:38:00,19.9,14.4,30.15,NNW,342,10.0,14.0,79,0.00,,---,0.00,VWS V14.00,2013-01-13 22:38:00,
2013-01-13 16:43:00,19.7,14.3,30.15,NNW,342,10.0,11.0,79,0.00,,---,0.00,VWS V14.00,2013-01-13 22:43:00,
2013-01-13 16:48:00,19.5,13.8,30.16,NNW,342,11.0,17.0,78,0.00,,---,0.00,VWS V14.00,2013-01-13 22:48:00,
2013-01-13 16:53:00,19.4,13.7,30.16,NNW,342,12.0,12.0,78,0.00,,---,0.00,VWS V14.00,2013-01-13 22:53:00,
2013-01-13 16:58:00,19.4,13.7,30.16,NNW,342,6.0,9.0,78,0.00,,---,0.00,VWS V14.00,2013-01-13 22:58:00,
2013-01-13 17:03:00,19.4,13.7,30.17,NNW,342,8.0,14.0,78,0.00,,---,0.00,VWS V14.00,2013-01-13 23:03:00,
2013-01-13 17:08:00,19.4,13.7,30.17,NNW,342,9.0,14.0,78,0.00,,---,0.00,VWS V14.00,2013-01-13 23:08:00,
2013-01-13 17:14:00,19.4,13.7,30.17,NNW,342,10.0,12.0,78,0.00,,---,0.00,VWS V14.00,2013-01-13 23:14:00,
2013-01-13 17:19:00,19.2,13.5,30.18,NNW,342,10.0,11.0,78,0.00,,---,0.00,VWS V14.00,2013-01-13 23:19:00,
2013-01-13 17:24:00,19.2,13.5,30.18,NNW,342,14.0,14.0,78,0.00,,---,0.00,VWS V14.00,2013-01-13 23:24:00,
2013-01-13 17:29:00,19.2,13.5,30.18,NNW,342,7.0,11.0,78,0.00,,---,0.00,VWS V14.00,2013-01-13 23:29:00,
2013-01-13 17:34:00,19.1,13.4,30.19,NNW,342,12.0,16.0,78,0.00,,---,0.00,VWS V14.00,2013-01-13 23:34:00,
2013-01-13 17:39:00,18.9,13.2,30.19,NNW,342,10.0,13.0,78,0.00,,---,0.00,VWS V14.00,2013-01-13 23:39:00,
2013-01-13 17:44:00,18.9,13.2,30.19,NNW,342,11.0,18.0,78,0.00,,---,0.00,VWS V14.00,2013-01-13 23:44:00,
2013-01-13 17:49:00,19.1,13.4,30.20,NNW,342,6.0,12.0,78,0.00,,---,0.00,VWS V14.00,2013-01-13 23:49:00,
2013-01-13 17:54:00,19.1,13.4,30.20,NNW,342,5.0,5.0,78,0.00,,---,0.00,VWS V14.00,2013-01-13 23:54:00,
2013-01-13 17:59:00,19.1,13.4,30.20,NNW,342,5.0,5.0,78,0.00,,---,0.00,VWS V14.00,2013-01-13 23:59:00,
2013-01-13 18:04:00,19.1,13.4,30.19,NNW,342,5.0,5.0,78,0.00,,---,0.00,VWS V14.00,2013-01-14 00:04:00,
2013-01-13 18:09:00,19.1,13.4,30.19,NNW,342,5.0,5.0,78,0.00,,---,0.00,VWS V14.00,2013-01-14 00:09:00,
2013-01-13 18:15:00,19.1,13.4,30.19,NNW,342,5.0,5.0,78,0.00,,---,0.00,VWS V14.00,2013-01-14 00:15:00,
2013-01-13 18:20:00,17.8,11.8,30.20,NNW,342,15.0,16.0,77,0.00,,---,0.00,VWS V14.00,2013-01-14 00:20:00,
2013-01-13 18:25:00,17.5,11.5,30.20,NNW,342,8.0,16.0,77,0.00,,---,0.00,VWS V14.00,2013-01-14 00:25:00,
2013-01-13 18:30:00,17.3,11.1,30.20,NNW,342,16.0,16.0,76,0.00,,---,0.00,VWS V14.00,2013-01-14 00:30:00,
2013-01-13 18:35:00,17.2,11.2,30.21,NNW,342,11.0,15.0,77,0.00,,---,0.00,VWS V14.00,2013-01-14 00:35:00,
2013-01-13 18:40:00,17.2,10.9,30.21,NNW,342,10.0,12.0,76,0.00,,---,0.00,VWS V14.00,2013-01-14 00:40:00,
2013-01-13 18:45:00,17.0,11.1,30.21,NNW,342,7.0,14.0,77,0.00,,---,0.00,VWS V14.00,2013-01-14 00:45:00,
2013-01-13 18:50:00,16.9,10.9,30.22,NNW,342,13.0,14.0,77,0.00,,---,0.00,VWS V14.00,2013-01-14 00:50:00,
2013-01-13 18:55:00,16.7,10.8,30.22,NNW,342,12.0,12.0,77,0.00,,---,0.00,VWS V14.00,2013-01-14 00:55:00,
2013-01-13 19:00:00,16.7,10.8,30.22,NNW,342,9.0,13.0,77,0.00,,---,0.00,VWS V14.00,2013-01-14 01:00:00,
2013-01-13 19:06:00,16.5,10.3,30.22,NNW,342,5.0,12.0,76,0.00,,---,0.00,VWS V14.00,2013-01-14 01:06:00,
2013-01-13 19:11:00,16.4,10.2,30.22,NNW,342,13.0,13.0,76,0.00,,---,0.00,VWS V14.00,2013-01-14 01:11:00,
2013-01-13 19:16:00,16.2,10.0,30.22,NNW,342,7.0,10.0,76,0.00,,---,0.00,VWS V14.00,2013-01-14 01:16:00,
2013-01-13 19:21:00,16.1,9.9,30.23,NNW,342,4.0,11.0,76,0.00,,---,0.00,VWS V14.00,2013-01-14 01:21:00,
2013-01-13 19:26:00,15.9,9.1,30.23,NNW,342,7.0,9.0,74,0.00,,---,0.00,VWS V14.00,2013-01-14 01:26:00,
2013-01-13 19:31:00,15.7,9.2,30.23,WNW,300,12.0,17.0,75,0.00,,---,0.00,VWS V14.00,2013-01-14 01:31:00,
2013-01-13 19:36:00,15.7,9.2,30.23,WNW,290,7.0,11.0,75,0.00,,---,0.00,VWS V14.00,2013-01-14 01:36:00,
2013-01-13 19:41:00,15.6,9.1,30.23,WNW,292,13.0,13.0,75,0.00,,---,0.00,VWS V14.00,2013-01-14 01:41:00,
2013-01-13 19:47:00,15.6,8.8,30.23,WNW,294,4.0,10.0,74,0.00,,---,0.00,VWS V14.00,2013-01-14 01:47:00,
2013-01-13 19:52:00,15.4,8.6,30.24,WNW,294,6.0,7.0,74,0.00,,---,0.00,VWS V14.00,2013-01-14 01:52:00,
2013-01-13 19:57:00,15.4,8.6,30.24,WNW,295,6.0,10.0,74,0.00,,---,0.00,VWS V14.00,2013-01-14 01:57:00,
2013-01-13 20:02:00,15.4,8.6,30.24,WNW,293,6.0,11.0,74,0.00,,---,0.00,VWS V14.00,2013-01-14 02:02:00,
2013-01-13 20:07:00,15.4,8.6,30.25,WNW,290,11.0,11.0,74,0.00,,---,0.00,VWS V14.00,2013-01-14 02:07:00,
2013-01-13 20:12:00,15.2,8.7,30.25,WNW,295,7.0,11.0,75,0.00,,---,0.00,VWS V14.00,2013-01-14 02:12:00,
2013-01-13 20:17:00,15.2,8.7,30.25,WNW,296,7.0,7.0,75,0.00,,---,0.00,VWS V14.00,2013-01-14 02:17:00,
2013-01-13 20:22:00,15.2,8.7,30.25,WNW,296,7.0,7.0,75,0.00,,---,0.00,VWS V14.00,2013-01-14 02:22:00,
2013-01-13 20:27:00,15.1,8.6,30.25,WNW,291,6.0,12.0,75,0.00,,---,0.00,VWS V14.00,2013-01-14 02:27:00,
2013-01-13 20:32:00,15.1,8.9,30.25,WNW,292,7.0,10.0,76,0.00,,---,0.00,VWS V14.00,2013-01-14 02:32:00,
2013-01-13 20:38:00,15.1,8.9,30.25,WNW,292,9.0,10.0,76,0.00,,---,0.00,VWS V14.00,2013-01-14 02:38:00,
2013-01-13 20:43:00,15.1,8.9,30.25,WNW,291,5.0,6.0,76,0.00,,---,0.00,VWS V14.00,2013-01-14 02:43:00,
2013-01-13 20:48:00,14.9,8.7,30.25,WNW,291,6.0,9.0,76,0.00,,---,0.00,VWS V14.00,2013-01-14 02:48:00,
2013-01-13 20:53:00,14.9,9.0,30.25,WNW,291,5.0,6.0,77,0.00,,---,0.00,VWS V14.00,2013-01-14 02:53:00,
2013-01-13 20:58:00,14.9,9.0,30.25,WNW,291,6.0,9.0,77,0.00,,---,0.00,VWS V14.00,2013-01-14 02:58:00,
2013-01-13 21:03:00,14.9,9.0,30.25,WNW,292,6.0,10.0,77,0.00,,---,0.00,VWS V14.00,2013-01-14 03:03:00,
2013-01-13 21:08:00,14.9,9.3,30.25,WNW,288,4.0,4.0,78,0.00,,---,0.00,VWS V14.00,2013-01-14 03:08:00,
2013-01-13 21:13:00,14.9,9.3,30.25,WNW,288,4.0,4.0,78,0.00,,---,0.00,VWS V14.00,2013-01-14 03:13:00,
2013-01-13 21:18:00,14.9,9.3,30.25,WNW,290,6.0,10.0,78,0.00,,---,0.00,VWS V14.00,2013-01-14 03:18:00,
2013-01-13 21:24:00,14.9,9.3,30.25,WNW,290,6.0,9.0,78,0.00,,---,0.00,VWS V14.00,2013-01-14 03:24:00,
2013-01-13 21:29:00,14.9,9.3,30.25,WNW,290,5.0,11.0,78,0.00,,---,0.00,VWS V14.00,2013-01-14 03:29:00,
2013-01-13 21:34:00,14.9,9.6,30.25,WNW,291,6.0,11.0,79,0.00,,---,0.00,VWS V14.00,2013-01-14 03:34:00,
2013-01-13 21:39:00,14.9,9.6,30.25,WNW,290,4.0,10.0,79,0.00,,---,0.00,VWS V14.00,2013-01-14 03:39:00,
2013-01-13 21:44:00,14.9,9.6,30.25,WNW,291,5.0,7.0,79,0.00,,---,0.00,VWS V14.00,2013-01-14 03:44:00,
2013-01-13 21:49:00,14.9,9.6,30.25,WNW,291,7.0,12.0,79,0.00,,---,0.00,VWS V14.00,2013-01-14 03:49:00,
2013-01-13 21:54:00,14.9,9.6,30.25,WNW,291,6.0,9.0,79,0.00,,---,0.00,VWS V14.00,2013-01-14 03:54:00,
2013-01-13 21:59:00,14.9,9.6,30.25,WNW,292,5.0,7.0,79,0.00,,---,0.00,VWS V14.00,2013-01-14 03:59:00,
2013-01-13 22:04:00,14.9,9.6,30.25,WNW,292,8.0,9.0,79,0.00,,---,0.00,VWS V14.00,2013-01-14 04:04:00,
2013-01-13 22:10:00,14.9,9.6,30.25,WNW,290,7.0,11.0,79,0.00,,---,0.00,VWS V14.00,2013-01-14 04:10:00,
2013-01-13 22:15:00,14.9,9.3,30.25,WNW,290,10.0,11.0,78,0.00,,---,0.00,VWS V14.00,2013-01-14 04:15:00,
2013-01-13 22:20:00,14.9,9.3,30.27,WNW,290,3.0,5.0,78,0.00,,---,0.00,VWS V14.00,2013-01-14 04:20:00,
2013-01-13 22:25:00,14.9,9.3,30.27,WNW,290,4.0,7.0,78,0.00,,---,0.00,VWS V14.00,2013-01-14 04:25:00,
2013-01-13 22:30:00,14.9,9.3,30.27,WNW,290,6.0,9.0,78,0.00,,---,0.00,VWS V14.00,2013-01-14 04:30:00,
2013-01-13 22:35:00,14.9,9.3,30.27,WNW,293,7.0,7.0,78,0.00,,---,0.00,VWS V14.00,2013-01-14 04:35:00,
2013-01-13 22:40:00,14.9,9.3,30.27,WNW,292,6.0,6.0,78,0.00,,---,0.00,VWS V14.00,2013-01-14 04:40:00,
2013-01-13 22:45:00,14.8,9.2,30.27,WNW,292,4.0,4.0,78,0.00,,---,0.00,VWS V14.00,2013-01-14 04:45:00,
2013-01-13 22:50:00,14.8,9.2,30.28,WNW,294,11.0,11.0,78,0.00,,---,0.00,VWS V14.00,2013-01-14 04:50:00,
2013-01-13 22:56:00,14.8,9.2,30.28,WNW,294,6.0,9.0,78,0.00,,---,0.00,VWS V14.00,2013-01-14 04:56:00,
2013-01-13 23:00:00,14.8,8.9,30.28,WNW,292,6.0,9.0,77,0.00,,---,0.00,VWS V14.00,2013-01-14 05:00:00,
2013-01-13 23:01:00,14.8,8.9,30.28,WNW,292,4.0,9.0,77,0.00,,---,0.00,VWS V14.00,2013-01-14 05:01:00,
2013-01-13 23:02:00,14.8,8.9,30.28,WNW,292,13.0,13.0,77,0.00,,---,0.00,VWS V14.00,2013-01-14 05:02:00,
2013-01-13 23:03:00,14.8,8.9,30.28,WNW,293,6.0,13.0,77,0.00,,---,0.00,VWS V14.00,2013-01-14 05:03:00,
2013-01-13 23:08:00,14.6,8.7,30.28,WNW,294,7.0,7.0,77,0.00,,---,0.00,VWS V14.00,2013-01-14 05:08:00,
2013-01-13 23:13:00,14.6,8.7,30.28,WNW,294,6.0,11.0,77,0.00,,---,0.00,VWS V14.00,2013-01-14 05:13:00,
2013-01-13 23:18:00,14.6,8.7,30.29,WNW,293,6.0,9.0,77,0.00,,---,0.00,VWS V14.00,2013-01-14 05:18:00,
2013-01-13 23:23:00,14.4,8.5,30.29,WNW,293,6.0,11.0,77,0.00,,---,0.00,VWS V14.00,2013-01-14 05:23:00,
2013-01-13 23:28:00,14.4,8.5,30.29,WNW,293,3.0,5.0,77,0.00,,---,0.00,VWS V14.00,2013-01-14 05:28:00,
2013-01-13 23:33:00,14.4,8.5,30.30,WNW,293,5.0,5.0,77,0.00,,---,0.00,VWS V14.00,2013-01-14 05:33:00,
2013-01-13 23:38:00,14.3,8.4,30.30,WNW,292,4.0,7.0,77,0.00,,---,0.00,VWS V14.00,2013-01-14 05:38:00,
2013-01-13 23:44:00,14.3,8.4,30.30,WNW,293,3.0,9.0,77,0.00,,---,0.00,VWS V14.00,2013-01-14 05:44:00,
2013-01-13 23:49:00,14.1,8.2,30.31,WNW,293,2.0,2.0,77,0.00,,---,0.00,VWS V14.00,2013-01-14 05:49:00,
2013-01-13 23:54:00,14.1,8.2,30.31,WNW,293,5.0,5.0,77,0.00,,---,0.00,VWS V14.00,2013-01-14 05:54:00,
2013-01-13 23:59:00,14.0,8.1,30.31,WNW,292,5.0,5.0,77,0.00,,---,0.00,VWS V14.00,2013-01-14 05:59:00,